Regional Weather Roundup
Issued by NWS

Home | Current Version | Previous Version | Text Only | Print | Product List | Glossary On
Versions: 1 2 3 4 5 6 7 8 9 10 11 12 13 14 15 16 17 18 19 20 21 22 23 24 25 26 27 28 29 30 31 32 33 34 35 36 37 38 39 40 41 42 43 44 45 46 47 48 49 50
000
ASUS43 KLOT 230708
RWRIL

ILLINOIS REGIONAL WEATHER ROUNDUP
NATIONAL WEATHER SERVICE CHICAGO/ROMEOVILLE IL
100 AM CST TUE JAN 23 2018

NOTE: "FAIR" INDICATES FEW OR NO CLOUDS BELOW 12,000 FEET WITH NO
SIGNIFICANT WEATHER AND/OR OBSTRUCTIONS TO VISIBILITY.

* THESE STATIONS ARE NOT UNDER NWS QUALITY CONTROL. THEY ALSO MAY NOT
  REPORT WEATHER SUCH AS PRECIPITATION OR FOG.

ILZ001-002-007-009-015-016-024-230800-
NORTHWEST ILLINOIS

CITY           SKY/WX    TMP DP  RH WIND       PRES   REMARKS
MOLINE         MIX PCPN  35  32  88 W8        29.55R WCI  29
STERLING*        N/A     33  31  92 MISG        N/A
SAVANNA*       DRIZZLE   36  35  96 NW10      29.53R WCI  28
$$

ILZ003-004-008-010-011-017-018-230800-
NORTH CENTRAL ILLINOIS

CITY           SKY/WX    TMP DP  RH WIND       PRES   REMARKS
ROCKFORD       LGT RAIN  36  32  85 W6        29.51S WCI  31
FREEPORT*      LGT RAIN  33  32  98 N5        29.53R WCI  28
ROCHELLE*      CLOUDY    34  32  93 W9        29.52S WCI  26
DE KALB*       LGT RAIN  36  32  87 W10       29.50F WCI  28
PERU*          MOCLDY    32  29  91 W6        29.54R WCI  26
$$

ILZ005-006-012>014-019>023-230800-
NORTHEAST ILLINOIS

CITY           SKY/WX    TMP DP  RH WIND       PRES   REMARKS
CHICAGO-OHARE  CLOUDY    38  31  76 SW10      29.49F WCI  31
CHICAGO-MIDWAY FAIR      36  31  82 SW5       29.50F WCI  32
AURORA         FAIR      34  30  85 SW7       29.51S WCI  28
LANSING*       FAIR      35  33  93 SW7       29.52S WCI  29
JOLIET*        FAIR      37  32  85 SW5       29.52S WCI  33
WAUKEGAN       LGT RAIN  36  35  96 VRB5      29.47S FOG     WCI  32
DUPAGE AIRPORT CLOUDY    35  32  88 SW10      29.50S WCI  27
KANKAKEE*      CLOUDY   N/A N/A N/A SW8       29.55R
WHEELING       CLOUDY    39  32  76 SW12      29.50S WCI  32
MORRIS*        FAIR      34  31  91 SW6       29.51S WCI  29
ROMEOVILLE*    FAIR      34  31  88 SW6       29.51S WCI  29
NORTHERLY ISL    N/A     38  31  76 SW8         N/A  WCI  32
$$

LMZ740>746-230800-
SOUTHERN LAKE MICHIGAN

STATION/POSITION SKY/WX   TEMP    WIND        PRES    VSBY  WAVE
                          AIR SEA DIR/SP/G                  HT/PER
                          (F)     (DEG/KT/KT) (MB)    (MI)  (FT/S)
HARRISON CRIB              41     240/ 16/ 20   N/A
BURNHAM HARBOR             38     230/  6/  9   N/A
CALUMET HARBOR             37     230/  5/  8  998.8F
BURNS HARBOR               39     210/ 14/ 18 1000.0F
MICHIGAN CITY              38     190/ 11/ 12   N/A
$$

ILZ025>027-034>036-040-047-049-050-058-095>099-230800-
WEST-CENTRAL ILLINOIS

CITY           SKY/WX    TMP DP  RH WIND       PRES   REMARKS
QUINCY         CLOUDY    34  33  96 W12       29.60R WCI  25
GALESBURG*     CLOUDY    35  35 100 SW6       29.56R WCI  30
MACOMB*        CLOUDY    34  33  99 W8        29.59R FOG     WCI  27
JACKSONVILLE*  LGT SNOW  32  32  99 SW8       29.59R WCI  25
PITTSFIELD*    DRIZZLE   34  33  96 W12       29.61R WCI  25
$$

ILZ028>032-037-038-041>044-048-051>054-059>061-230800-
CENTRAL ILLINOIS

CITY           SKY/WX    TMP DP  RH WIND       PRES   REMARKS
PONTIAC        CLOUDY    36  36  99 SW12      29.55S WCI  28
BLOOMINGTON    MIX PCPN  35  33  92 W16       29.56R WCI  25
DECATUR        FLURRIES  35  34  96 SW16G23   29.58R WCI  25
PEORIA         LGT RAIN  35  33  92 SW8       29.55S FOG     WCI  29
LACON*         CLOUDY    35  34  96 SW9       29.53S WCI  28
LINCOLN*       LGT RAIN  36  35  96 SW6       29.58R WCI  31
SPRINGFIELD    LGT SNOW  34  33  96 SW13      29.59R WCI  25
TAYLORVILLE    LGT RAIN  34  32  92 W14       29.60R WCI  24
$$

ILZ033-039-045-046-055>057-062-063-230800-
EAST-CENTRAL ILLINOIS

CITY           SKY/WX    TMP DP  RH WIND       PRES   REMARKS
CHAMPAIGN      LGT RAIN  37  34  89 SW17      29.57S WCI  27
DANVILLE*      DRIZZLE   37  34  89 SW9       29.55R WCI  30
RANTOUL*       DRIZZLE   37  36  94 SW8       29.56S WCI  31
MATTOON        LGT RAIN  36  35  96 SW10G18   29.59R WCI  28
PARIS*         RAIN      37  35  91 SW12G22   29.61S WCI  30
$$

ILZ079-100>102-230800-
SOUTHWEST ILLINOIS

CITY           SKY/WX    TMP DP  RH WIND       PRES   REMARKS
ALTON          LGT SNOW  33  33 100 SW10      29.65S WCI  24
BELLEVILLE     LGT RAIN  37  29  73 SW16G23   29.66R WCI  27
CAHOKIA*       MIX PCPN  37  29  72 SW14G25   29.66R WCI  28
SPARTA*        CLOUDY    37  30  77 SW12G18   29.71R WCI  29
$$

ILZ064>066-069>071-074>076-080>082-084>086-088>090-092>094-230800-
SOUTH-CENTRAL ILLINOIS

CITY           SKY/WX    TMP DP  RH WIND       PRES   REMARKS
CARBONDALE     CLOUDY    40  28  62 W12G25    29.72R
CAIRO*         CLOUDY    42  29  61 SW14      29.77R
EFFINGHAM*     CLOUDY    36  33  90 S13G18    29.64S WCI  27
MARION         CLOUDY    41  28  59 SW16G25   29.72R
MT. VERNON     CLOUDY    38  30  73 SW16      29.68R WCI  29
CENTRALIA*     CLOUDY    37  32  82 SW20G26   29.66R WCI  26
SALEM*         CLOUDY    38  31  76 SW20      29.65S WCI  28
METROPOLIS*    CLOUDY    43  29  56 W9G18     29.76R
$$

ILZ067-068-072-073-078-083-087-091-230800-
SOUTHEAST ILLINOIS

CITY           SKY/WX    TMP DP  RH WIND       PRES   REMARKS
LAWRENCEVILLE  CLOUDY    41  33  73 SW21      29.65R
FLORA*         MOCLDY    39  32  76 SW15G22   29.66S WCI  31
FAIRFIELD*     MOCLDY    39  30  71 SW10      29.67R WCI  32
HARRISBURG*    CLOUDY    41  31  66 SW20G25   29.71R
ROBINSON*      DRIZZLE   38  35  90 W16G24    29.65R WCI  28
CARMI*         MOCLDY    38  33  82 SW10      29.69R WCI  31
$$

ABBREVIATIONS USED IN REMARKS
   TC - TEMPERATURE IN CELSIUS
  WCI - WIND CHILL INDEX
   HX - HEAT INDEX
  VSB - VISIBILITY
$$





USA.gov is the U.S. government's official web portal to all federal, state and local government web resources and services.